Terminal Aerodrome Forecast
Issued by NWS Spokane, WA

Home | Current Version | Previous Version | Text Only | Print | Product List | Glossary On
Versions: 1 2 3 4 5 6 7 8 9 10 11 12 13 14 15 16 17 18 19 20 21 22 23 24 25 26 27 28 29 30 31 32 33 34 35 36 37 38 39 40 41 42 43 44
000
FTUS46 KOTX 272327
TAFGEG
TAF
KGEG 272327Z 2800/2824 21020G30KT P6SM SCT060 BKN090
     FM280200 20016KT P6SM SCT080 BKN100
     FM280700 20012KT P6SM OVC050 PROB30 2812/2815 P6SM -RA OVC050
     FM281500 21018G28KT P6SM -RA OVC050
     FM282000 23025G35KT P6SM -SHRA BKN040 OVC080=

USA.gov is the U.S. government's official web portal to all federal, state and local government web resources and services.